User: anonymous   Login
Location: Clatteringshaws Loch
(55.0508°N, 4.2860°W)
Time: 00:17:06
(UTC+00:00)
Language:

Cosmos 2221 Rocket - Orbit

View from above orbital plane
View from above orbital plane
View from above satellite
View from above satellite

Ground track
Ground track

The orbit data is extracted from the following two-line orbital elements,

1 22237U 92080B   17055.85980623  .00000153  00000-0  17874-4 0  9994
2 22237  82.5107 222.2019 0019001 209.1236 263.4255 14.78303827306844
Epoch (UTC): 24 February 2017 20:38:07
Eccentricity: 0.0019001
inclination: 82.5107°
perigee height: 621 km
apogee height: 648 km
right ascension of ascending node: 222.2019°
argument of perigee: 209.1236°
revolutions per day: 14.78303827
mean anomaly at epoch: 263.4255°
orbit number at epoch: 30684

The dashed part of the orbit path shows where the satellite is in the earth's shadow,  

DLR